Location: Bergnershof
(48.9468°N, 10.9431°E)
Time: 15:04:24
(UTC+00:00)

Cosmos 2333 Rocket - Pass Details

Date: 30 June 2021
Orbit: 841 x 861 km, 70.8° (Epoch: 28 July)

Event Time Altitude Azimuth Distance (km) Brightness Sun altitude
Rises 01:32:46 0° 334° (NNW) 3,422 5.9 -12.0°
Reaches altitude 10° 01:36:32 10° 359° (N) 2,480 5.6 -11.7°
Maximum altitude 01:39:31 14° 31° (NNE) 2,180 5.7 -11.5°
Drops below altitude 10° 01:42:30 10° 63° (ENE) 2,469 5.6 -11.2°
Sets 01:46:13 0° 87° (E) 3,399 5.9 -10.9°
